Monticello, KY

1:36 PM EST on November 23, 2017 (GMT -0500)
Wayne County

Weather History for KEKQ - March, 2013

Change the Weather History Date:

Sunday, March 3, 2013

  Actual Average Record
Temperature  
Mean Temperature 26 °F -  
Max Temperature 34 °F 57 °F 78 °F (1983)
Min Temperature 17 °F 34 °F -6 °F (1980)
Degree Days  
Heating Degree Days 40    
Moisture  
Dew Point 21 °F    
Average Humidity 82    
Maximum Humidity 96    
Minimum Humidity 54    
Precipitation  
Precipitation 0.00 in - - ()
Sea Level Pressure  
Sea Level Pressure 30.13 in    
Wind  
Wind Speed 4 mph (SSE)    
Max Wind Speed 13 mph    
Max Gust Speed 18 mph    
Visibility 7 miles    
Events Snow    
Averages and records for this station are not official NWS values.
T = Trace of Precipitation, MM = Missing Value Source: NWS Daily Summary

Daily Weather History Graph

Daily Weather History Graph

Search for Another Location

Airport or City:

Trip Planner

Search our weather history database for the weather conditions in past years. The results will help you decide how hot, cold, wet, or windy it might be!

Date:

Astronomy

Mar. 03, 2013 Rise Set
Actual Time 6:07 AM CST 5:35 PM CST
Civil Twilight 5:41 AM CST 6:01 PM CST
Nautical Twilight 5:11 AM CST 6:31 PM CST
Astronomical Twilight 4:41 AM CST 7:02 PM CST
Moon No Moon Rise 9:31 AM CST (3/3)
Length of Visible Light 12h 20m
Length of Day
11h 28m
Waning Gibbous, 63% of the Moon is Illuminated
Mar 3
Waning Gibbous
Mar 4
Last Quarter
Mar 11
New
Mar 19
First Quarter
Mar 27
Full

Hourly Weather History & Observations

Time (CST) Temp. Windchill Dew Point Humidity Pressure Visibility Wind Dir Wind Speed Gust Speed Precip Events Conditions
12:56 AM 27.1 °F 21.8 °F 23.0 °F 84% 30.16 in 6.0 mi South 4.6 mph - 0.00 in Snow Light Snow
1:36 AM 26.6 °F - 23.0 °F 86% 30.10 in 6.0 mi Calm Calm - 0.00 in Snow Light Snow
2:02 AM 26.6 °F - 24.8 °F 93% 30.10 in 1.2 mi Calm Calm - 0.00 in Snow Light Snow
2:12 AM 26.6 °F - 24.8 °F 93% 30.09 in 2.0 mi Calm Calm - 0.00 in Snow Light Snow
2:23 AM 26.6 °F 21.2 °F 24.8 °F 93% 30.09 in 1.8 mi SSW 4.6 mph - 0.00 in Snow Light Snow
2:38 AM 24.8 °F 19.1 °F 23.0 °F 93% 30.09 in 2.0 mi South 4.6 mph - 0.00 in Snow Light Snow
2:45 AM 24.8 °F 19.1 °F 23.0 °F 93% 30.09 in 3.0 mi SSW 4.6 mph - 0.00 in Snow Light Snow
2:56 AM 25.2 °F 17.3 °F 23.0 °F 91% 30.14 in 2.0 mi SSW 6.9 mph - 0.00 in Snow Light Snow
3:05 AM 24.8 °F 16.1 °F 23.0 °F 93% 30.09 in 1.5 mi SSW 8.1 mph - 0.00 in Snow Light Snow
3:17 AM 24.8 °F 17.9 °F 23.0 °F 93% 30.09 in 2.0 mi SSW 5.8 mph - 0.00 in Snow Light Snow
3:35 AM 24.8 °F 20.5 °F 23.0 °F 93% 30.09 in 1.5 mi SSW 3.5 mph - 0.00 in Snow Light Snow
3:39 AM 24.8 °F - 23.0 °F 93% 30.09 in 2.5 mi Calm Calm - 0.00 in Snow Light Snow
3:44 AM 24.8 °F - 23.0 °F 93% 30.09 in 6.0 mi Calm Calm - 0.00 in Snow Light Snow
3:56 AM 25.2 °F - 23.0 °F 91% 30.14 in 10.0 mi Calm Calm - 0.00 in   Overcast
4:56 AM 22.1 °F - 21.0 °F 96% 30.14 in 9.0 mi Calm Calm - 0.00 in   Overcast
5:56 AM 25.2 °F 17.3 °F 23.0 °F 91% 30.15 in 2.5 mi SE 6.9 mph - 0.00 in Snow Light Snow
6:05 AM 24.8 °F 17.9 °F 21.2 °F 86% 30.10 in 3.0 mi SE 5.8 mph - 0.00 in Snow Light Snow
6:56 AM 26.1 °F 20.5 °F 23.0 °F 88% 30.15 in 10.0 mi SE 4.6 mph - 0.00 in   Overcast
7:33 AM 26.6 °F 19.1 °F 21.2 °F 80% 30.11 in 2.0 mi SE 6.9 mph - 0.00 in Snow Light Snow
7:56 AM 26.1 °F 18.4 °F 22.1 °F 85% 30.17 in 4.0 mi SE 6.9 mph - 0.00 in Snow Light Snow
8:56 AM 29.1 °F 23.0 °F 19.0 °F 66% 30.16 in 10.0 mi SSE 5.8 mph - 0.00 in   Overcast
9:56 AM 29.1 °F 21.3 °F 19.0 °F 66% 30.17 in 10.0 mi ESE 8.1 mph - N/A   Overcast
10:56 AM 30.0 °F 24.1 °F 21.0 °F 69% 30.17 in 10.0 mi SE 5.8 mph - 0.00 in   Overcast
11:56 AM 30.0 °F 21.1 °F 23.0 °F 75% 30.15 in 7.0 mi ESE 10.4 mph - 0.00 in Snow Light Snow
12:04 PM 30.2 °F 21.9 °F 23.0 °F 75% 30.10 in 10.0 mi SE 9.2 mph - 0.00 in Snow Light Snow
12:40 PM 30.2 °F 21.3 °F 21.2 °F 69% 30.09 in 10.0 mi ESE 10.4 mph - 0.00 in   Overcast
12:56 PM 30.0 °F 24.1 °F 22.1 °F 72% 30.14 in 10.0 mi East 5.8 mph - 0.00 in   Overcast
1:17 PM 32.0 °F 22.5 °F 21.2 °F 64% 30.09 in 10.0 mi ESE 12.7 mph - N/A   Overcast
1:56 PM 32.9 °F 24.1 °F 22.1 °F 65% 30.14 in 10.0 mi ESE 11.5 mph 18.4 mph N/A   Mostly Cloudy
2:56 PM 32.9 °F 25.9 °F 20.1 °F 59% 30.14 in 10.0 mi SE 8.1 mph - N/A   Mostly Cloudy
3:56 PM 34.0 °F 28.0 °F 19.0 °F 54% 30.13 in 10.0 mi SSE 6.9 mph - N/A   Mostly Cloudy
4:56 PM 32.9 °F 26.7 °F 19.0 °F 57% 30.14 in 10.0 mi SE 6.9 mph - N/A   Clear
5:56 PM 30.0 °F - 21.0 °F 69% 30.14 in 10.0 mi Calm Calm - N/A   Clear
6:56 PM 25.2 °F - 20.1 °F 81% 30.15 in 10.0 mi Calm Calm - N/A   Clear
7:56 PM 21.0 °F - 19.0 °F 92% 30.16 in 10.0 mi Calm Calm - N/A   Clear
8:56 PM 19.0 °F - 17.1 °F 92% 30.17 in 10.0 mi Calm Calm - N/A   Clear
9:56 PM 19.0 °F - 18.1 °F 96% 30.16 in 10.0 mi Calm Calm - N/A   Clear
10:56 PM 17.1 °F - 15.1 °F 92% 30.17 in 10.0 mi Calm Calm - N/A   Clear
11:56 PM 19.0 °F - 17.1 °F 92% 30.17 in 10.0 mi Calm Calm - N/A   Clear